Seattle Boeing, WA
on Friday, November 16, 2012

Friday
Previous Day Next Day
Daily Summary
 ActualAverage (KSEA)Record (KSEA)
Temperature
Mean Temperature °F 45°F  
Max Temperature 48°F 51°F 68°F (1965)
Min Temperature 35°F 40°F 21°F (1955)
Degree Days
Heating Degree Days 24 20  
Month to date heating degree days 288  
Since 1 July heating degree days 885  
Cooling Degree Days 0 0  
Month to date cooling degree days 0  
Year to date cooling degree days 189  
Moisture
Dew Point 39°F   
Average Humidity 92    
Maximum Humidity 100    
Minimum Humidity 77    
Precipitation
Precipitation 0.25 in 0.23 in 1.08 in (1988)
Month to date precipitation 3.42  
Year to date precipitation 28.99  
Snow
Snow 0.00 in in T in (1994)
Month to date snowfall  
Since 1 July snowfall  
Snow Depth in   
Wind
Wind Speed 4 mph   
Max Wind Speed 10 mph   
Max Gust Speed mph   
Visibility 5 miles   
Events Fog , Rain   

Key: T is trace of precipitation, MM is missing value
Source: NWS Daily Summary
Time(PST)TemperatureDew PointHumidity Pressure Visibility Wind DirectionWind SpeedGust SpeedPrecipitationEvents Conditions
12:53 AM 39.9°F 39.9°F 100% 29.95 in 0.8 miles ESE 4.6 mph - N/A Fog Fog
1:01 AM 39.2°F 39.2°F 100% 29.95 in 1.8 miles SE 4.6 mph - N/A Fog Fog
1:53 AM 39.0°F 39.0°F 100% 29.95 in 0.5 miles SE 5.8 mph - N/A Fog Fog
2:53 AM 37.0°F 37.0°F 100% 29.94 in 1.0 miles SE 5.8 mph - N/A   Mist
3:00 AM 37.4°F 35.6°F 93% 29.93 in 0.8 miles SE 5.8 mph - N/A   Mist
3:14 AM 37.4°F 35.6°F 93% 29.93 in 2.0 miles ESE 5.8 mph - N/A   Overcast
3:23 AM 37.4°F 35.6°F 93% 29.92 in 5.0 miles ESE 4.6 mph - N/A   Overcast
3:53 AM 37.0°F 36.0°F 96% 29.92 in 2.5 miles SE 4.6 mph - N/A   Overcast
4:06 AM 37.4°F 35.6°F 93% 29.92 in 1.2 miles ESE 4.6 mph - N/A   Overcast
4:33 AM 37.4°F 35.6°F 93% 29.92 in 0.5 miles ESE 4.6 mph - N/A Fog Fog
4:53 AM 36.0°F 36.0°F 100% 29.92 in 0.2 miles ESE 3.5 mph - N/A Fog Fog
5:53 AM 37.0°F 37.0°F 100% 29.91 in 0.2 miles SE 3.5 mph - N/A Fog Fog
6:53 AM 37.9°F 37.0°F 97% 29.91 in 0.2 miles SSE 6.9 mph - N/A Fog Fog
7:17 AM 35.6°F 35.6°F 100% 29.92 in 0.8 miles SSE 10.4 mph - N/A   Mist
7:51 AM 35.6°F 35.6°F 100% 29.92 in 1.5 miles SSE 8.1 mph - N/A   Mostly Cloudy
7:53 AM 36.0°F 36.0°F 100% 29.92 in 1.5 miles SSE 8.1 mph - N/A   Mostly Cloudy
8:00 AM 35.6°F 35.6°F 100% 29.92 in 3.0 miles SE 8.1 mph - N/A   Mostly Cloudy
8:53 AM 37.0°F 36.0°F 96% 29.92 in 10.0 miles SSE 10.4 mph - N/A   Mostly Cloudy
9:53 AM 41.0°F 37.0°F 86% 29.92 in 10.0 miles ESE 5.8 mph - N/A   Overcast
10:53 AM 45.0°F 39.0°F 80% 29.92 in 10.0 miles Calm Calm - N/A   Overcast
11:53 AM 46.0°F 39.9°F 79% 29.90 in 10.0 miles Calm Calm - 0.00 in Rain Light Rain
12:53 PM 46.0°F 39.9°F 79% 29.88 in 10.0 miles Calm Calm - 0.00 in   Overcast
1:53 PM 46.9°F 39.9°F 77% 29.86 in 10.0 miles ESE 4.6 mph - N/A   Overcast
2:53 PM 46.9°F 42.1°F 83% 29.84 in 8.0 miles Calm Calm - 0.02 in Rain Light Rain
3:53 PM 46.9°F 44.1°F 90% 29.83 in 3.0 miles Calm Calm - 0.05 in Rain Rain
4:53 PM 46.9°F 43.0°F 86% 29.80 in 10.0 miles Calm Calm - 0.05 in Rain Light Rain
5:53 PM 46.9°F 44.1°F 90% 29.79 in 9.0 miles Calm Calm - 0.03 in Rain Light Rain
6:53 PM 46.9°F 44.1°F 90% 29.77 in 10.0 miles Calm Calm - 0.02 in   Overcast
7:53 PM 46.9°F 44.1°F 90% 29.75 in 9.0 miles Calm Calm - 0.01 in   Overcast
8:53 PM 46.9°F 44.1°F 90% 29.74 in 7.0 miles Calm Calm - 0.00 in Rain Light Rain
9:53 PM 46.9°F 45.0°F 93% 29.73 in 9.0 miles SE 3.5 mph - 0.01 in Rain Light Rain
10:53 PM 46.9°F 45.0°F 93% 29.72 in 10.0 miles SSE 3.5 mph - 0.01 in   Overcast
11:53 PM 48.0°F 43.0°F 83% 29.70 in 10.0 miles SW 3.5 mph - 0.05 in Rain Light Rain
Moon Phase
Nov. 16 Nov. 20 Nov. 28 Dec. 06 Dec. 13
Sunrise:07:16 AM (PST) Moon Rise:10:19 AM (PST)11/16
Sunset:04:31 PM (PST) Moon Set:07:34 PM (PST)11/16

Copyright © 2014 The Weather Underground, Inc.